You are listening to:
KSAR CTAF - Sparta, Illinois, United States

KSAR 181022Z AUTO 24004KT 10SM CLR 07/06 A2999 RMK AO2

If stream doesn't start automatically press the play button
If stream stops then reload player then press play